False Pass, AK

7:29 PM AKDT on July 27, 2016 (GMT -0800)
False Pass

Weather History for PAKF - November, 2012

Change the Weather History Date:

Tuesday, November 27, 2012

  Actual Average (PACD) Record (PACD)
Temperature  
Mean Temperature 38 °F 33 °F  
Max Temperature 39 °F 38 °F 49 °F (1970)
Min Temperature 37 °F 29 °F 11 °F (1948)
Degree Days  
Heating Degree Days 27 32  
Month to date heating degree days 817  
Since 1 July heating degree days 2930  
Cooling Degree Days 0    
Month to date cooling degree days  
Year to date cooling degree days  
Moisture  
Dew Point 31 °F    
Average Humidity 77    
Maximum Humidity 81    
Minimum Humidity 67    
Precipitation  
Precipitation 0.00 in 0.17 in 0.84 in (1961)
Month to date precipitation 4.48  
Year to date precipitation 36.71  
Snow  
Snow 0.00 in 0.40 in 4.90 in (2012)
Month to date snowfall 8.9  
Since 1 July snowfall 11.3  
Since 1 September snowfall 11.3  
Snow Depth -    
Sea Level Pressure  
Sea Level Pressure 30.09 in    
Wind  
Wind Speed 15 mph (West)    
Max Wind Speed 25 mph    
Max Gust Speed 34 mph    
Visibility 10 miles    
Events Rain    
T = Trace of Precipitation, MM = Missing Value Source: NWS Daily Summary

Daily Weather History Graph

Daily Weather History Graph

Search for Another Location

Airport or City:

Trip Planner

Search our weather history database for the weather conditions in past years. The results will help you decide how hot, cold, wet, or windy it might be!

Date:

Astronomy

Nov. 27, 2012 Rise Set
Actual Time 8:48 AM HST 4:34 PM HST
Civil Twilight 8:05 AM HST 5:17 PM HST
Nautical Twilight 7:19 AM HST 6:03 PM HST
Astronomical Twilight 6:36 AM HST 6:46 PM HST
Moon 4:15 PM HST (11/27) 8:01 AM HST (11/27)
Length of Visible Light 9h 11m
Length of Day
7h 45m
Full, 100% of the Moon is Illuminated
Nov 27
Full
Nov 28
Full
Dec 6
Last Quarter
Dec 12
New
Dec 19
First Quarter

Hourly Weather History & Observations

Time (HST) Temp. Windchill Dew Point Humidity Pressure Visibility Wind Dir Wind Speed Gust Speed Precip Events Conditions
12:01 PM 39.2 °F 33.0 °F 32.0 °F 75% 29.88 in 10.0 mi WNW 9.2 mph 23.0 mph 0.00 in   Overcast
12:07 PM 37.9 °F 30.9 °F 32.0 °F 79% 30.17 in 10.0 mi West 10.4 mph 18.4 mph 0.00 in Rain Light Rain
12:17 PM 37.4 °F 32.1 °F 32.0 °F 81% 29.87 in 10.0 mi WNW 6.9 mph 20.7 mph 0.00 in Rain Light Rain
1:01 PM 37.4 °F 28.2 °F 32.0 °F 81% 29.88 in 9.0 mi West 16.1 mph 28.8 mph 0.00 in Rain Light Rain
1:11 PM 37.4 °F 28.2 °F 32.0 °F 81% 29.88 in 10.0 mi West 16.1 mph 27.6 mph 0.00 in Rain Light Rain
1:24 PM 37.4 °F 28.9 °F 30.2 °F 75% 29.88 in 10.0 mi West 13.8 mph 26.5 mph 0.00 in Rain Light Rain
1:47 PM 37.4 °F 25.9 °F 30.2 °F 75% 29.88 in 10.0 mi WSW 25.3 mph 33.4 mph 0.00 in Rain Light Rain
1:54 PM 37.4 °F 26.6 °F 30.2 °F 75% 29.88 in 10.0 mi West 21.9 mph 34.5 mph 0.00 in   Partly Cloudy
2:01 PM 37.9 °F 27.1 °F 30.9 °F 76% 30.17 in 10.0 mi West 23.0 mph 33.4 mph 0.00 in   Clear
2:08 PM 39.2 °F 29.8 °F 30.2 °F 70% 29.89 in 10.0 mi West 18.4 mph 29.9 mph N/A   Partly Cloudy
3:01 PM 37.9 °F 28.5 °F 30.9 °F 76% 30.19 in 10.0 mi West 17.3 mph 27.6 mph N/A   Clear
4:01 PM 37.0 °F 27.4 °F 30.9 °F 79% 30.22 in 10.0 mi WNW 17.3 mph 25.3 mph 0.00 in Rain Light Rain
5:01 PM 37.0 °F 26.2 °F 30.9 °F 79% 30.25 in 10.0 mi West 21.9 mph 31.1 mph 0.00 in   Clear
6:01 PM 39.0 °F 29.9 °F 28.9 °F 67% 30.26 in 10.0 mi West 17.3 mph 28.8 mph 0.00 in   Partly Cloudy
8:01 PM 37.9 °F 27.9 °F 30.0 °F 73% 30.31 in 10.0 mi WSW 19.6 mph 31.1 mph N/A   Clear
9:01 PM 37.0 °F 26.7 °F 30.9 °F 79% 30.31 in 10.0 mi West 19.6 mph 27.6 mph N/A   Clear
10:01 PM 37.0 °F 28.1 °F 30.9 °F 79% 30.33 in 10.0 mi West 15.0 mph 23.0 mph N/A   Mostly Cloudy
11:01 PM 37.9 °F 29.2 °F 32.0 °F 79% 30.33 in 10.0 mi West 15.0 mph 24.2 mph N/A   Overcast
11:27 PM 37.4 °F 27.8 °F 32.0 °F 81% 30.05 in 10.0 mi West 17.3 mph 26.5 mph N/A   Overcast